Tracking 19431 objects as of 18-Dec-2018
HD Live streaming from Space Station
objects crossing your sky now

CXBN-2

Track CXBN-2 now!
10-day predictions
CXBN-2 is classified as:


NORAD ID: 42704
Int'l Code: 1998-067LM
Perigee: 314.7 km
Apogee: 317.6 km
Inclination: 51.6 °
Period: 90.7 minutes
Semi major axis: 6687 km
RCS: Unknown
Launch date: November 20, 1998
Source: United States (US)
Launch site: TYURATAM MISSILE AND SPACE COMPLEX (TTMTR)

Uplink (MHz):
Downlink (MHz): 437.075
Beacon (MHz):
Mode: 9600bps FSK
Call sign:
Status: Unknown

aabbcc
Your satellite tracking list
Your tracking list is empty




NASA's NSSDC Master Catalog

Two Line Element Set (TLE):
1 42704U 98067LM  18352.41156452  .00101819  00000-0  37205-3 0  9994
2 42704  51.6283 125.0502 0002195 247.5317 112.5455 15.87594171 91006
Source of the keplerian elements: AFSPC